| time (UTC) | temp C | wind direction | speed KPH | gust KPH | rain 1hr cm | rain 24hr cm | rain mn cm | humidity % | barometer mb |
| 20260502232037 | 9 | 250 | 3.2 | 6.4 | 0.00 | 0.00 | 0.00 | 83 | 1020.7 |
| 20260502231517 | 9 | 250 | 0.0 | 4.8 | 0.00 | 0.00 | 0.00 | 84 | 1020.8 |
| 20260502231017 | 8 | 250 | 1.6 | 4.8 | 0.00 | 0.00 | 0.00 | 83 | 1020.8 |
| 20260502230521 | 8 | 250 | 0.0 | 0.0 | 0.00 | 0.00 | 0.00 | 83 | 1020.8 |
| 20260502230051 | 9 | 250 | 0.0 | 0.0 | 0.00 | 0.00 | 0.00 | 83 | 1020.9 |
| 20260502225533 | 9 | 250 | 0.0 | 0.0 | 0.00 | 0.00 | 0.00 | 83 | 1020.9 |
| 20260502225033 | 9 | 250 | 0.0 | 3.2 | 0.00 | 0.00 | 0.00 | 83 | 1020.9 |
| 20260502224517 | 9 | 250 | 0.0 | 3.2 | 0.00 | 0.00 | 0.00 | 83 | 1021.0 |
| 20260502224013 | 9 | 250 | 0.0 | 3.2 | 0.00 | 0.00 | 0.00 | 83 | 1020.9 |
| 20260502223536 | 9 | 250 | 0.0 | 0.0 | 0.00 | 0.00 | 0.00 | 83 | 1020.9 |
| 20260502223048 | 9 | 250 | 0.0 | 0.0 | 0.00 | 0.00 | 0.00 | 83 | 1020.9 |
| 20260502222532 | 9 | 250 | 0.0 | 0.0 | 0.00 | 0.00 | 0.00 | 83 | 1020.9 |
| 20260502222030 | 9 | 250 | 0.0 | 0.0 | 0.00 | 0.00 | 0.00 | 82 | 1021.0 |
| 20260502221531 | 9 | 250 | 0.0 | 0.0 | 0.00 | 0.00 | 0.00 | 82 | 1021.0 |
| 20260502221029 | 9 | 250 | 0.0 | 0.0 | 0.00 | 0.00 | 0.00 | 82 | 1021.0 |
| 20260502220536 | 10 | 250 | 0.0 | 1.6 | 0.00 | 0.00 | 0.00 | 82 | 1021.0 |
| 20260502220025 | 10 | 250 | 0.0 | 1.6 | 0.00 | 0.00 | 0.00 | 81 | 1021.0 |
| 20260502215528 | 10 | 250 | 0.0 | 0.0 | 0.00 | 0.00 | 0.00 | 81 | 1021.0 |
| 20260502215026 | 10 | 250 | 0.0 | 0.0 | 0.00 | 0.00 | 0.00 | 81 | 1020.9 |
| 20260502214527 | 10 | 250 | 0.0 | 0.0 | 0.00 | 0.00 | 0.00 | 80 | 1020.9 |
| 20260502214026 | 10 | 250 | 0.0 | 0.0 | 0.00 | 0.00 | 0.00 | 80 | 1021.0 |
| 20260502213539 | 10 | 250 | 0.0 | 0.0 | 0.00 | 0.00 | 0.00 | 80 | 1021.0 |
| 20260502213031 | 10 | 250 | 0.0 | 0.0 | 0.00 | 0.00 | 0.00 | 80 | 1021.0 |
| 20260502212533 | 10 | 250 | 0.0 | 0.0 | 0.00 | 0.00 | 0.00 | 80 | 1020.9 |
| 20260502212031 | 10 | 250 | 0.0 | 0.0 | 0.00 | 0.00 | 0.00 | 79 | 1020.9 |
| 20260502211515 | 10 | 250 | 0.0 | 0.0 | 0.00 | 0.00 | 0.00 | 79 | 1021.0 |
| 20260502211014 | 10 | 250 | 0.0 | 0.0 | 0.00 | 0.00 | 0.00 | 79 | 1021.0 |
| 20260502210517 | 10 | 250 | 0.0 | 0.0 | 0.00 | 0.00 | 0.00 | 79 | 1020.9 |
| 20260502210027 | 11 | 250 | 0.0 | 0.0 | 0.00 | 0.00 | 0.00 | 78 | 1021.0 |
| 20260502205530 | 11 | 250 | 0.0 | 0.0 | 0.00 | 0.00 | 0.00 | 78 | 1021.0 |
| 20260502205015 | 11 | 250 | 0.0 | 0.0 | 0.00 | 0.00 | 0.00 | 78 | 1021.0 |
| 20260502204519 | 11 | 250 | 0.0 | 0.0 | 0.00 | 0.00 | 0.00 | 77 | 1021.0 |
| 20260502204040 | 11 | 250 | 0.0 | 0.0 | 0.00 | 0.00 | 0.00 | 77 | 1021.1 |
| 20260502203542 | 11 | 250 | 0.0 | 0.0 | 0.00 | 0.00 | 0.00 | 77 | 1021.0 |
| 20260502203032 | 11 | 250 | 0.0 | 1.6 | 0.00 | 0.00 | 0.00 | 76 | 1021.0 |
| 20260502202517 | 11 | 250 | 0.0 | 1.6 | 0.00 | 0.00 | 0.00 | 76 | 1021.0 |
| 20260502202017 | 11 | 250 | 0.0 | 1.6 | 0.00 | 0.00 | 0.00 | 76 | 1021.0 |
| 20260502201521 | 11 | 250 | 0.0 | 0.0 | 0.00 | 0.00 | 0.00 | 75 | 1021.0 |
| 20260502201040 | 12 | 250 | 0.0 | 1.6 | 0.00 | 0.00 | 0.00 | 75 | 1021.1 |
| 20260502200522 | 12 | 250 | 0.0 | 1.6 | 0.00 | 0.00 | 0.00 | 74 | 1021.0 |
| 20260502200017 | 12 | 250 | 0.0 | 1.6 | 0.00 | 0.00 | 0.00 | 74 | 1021.0 |
| 20260502195542 | 12 | 250 | 0.0 | 1.6 | 0.00 | 0.00 | 0.00 | 74 | 1021.0 |
| 20260502195019 | 12 | 250 | 0.0 | 1.6 | 0.00 | 0.00 | 0.00 | 74 | 1020.9 |
| 20260502194544 | 12 | 250 | 0.0 | 1.6 | 0.00 | 0.00 | 0.00 | 74 | 1020.9 |
| 20260502194021 | 12 | 250 | 0.0 | 0.0 | 0.00 | 0.00 | 0.00 | 73 | 1020.9 |
| 20260502193544 | 12 | 250 | 0.0 | 1.6 | 0.00 | 0.00 | 0.00 | 73 | 1020.8 |
| 20260502193014 | 13 | 250 | 0.0 | 1.6 | 0.00 | 0.00 | 0.00 | 72 | 1020.8 |
| 20260502192520 | 13 | 250 | 0.0 | 1.6 | 0.00 | 0.00 | 0.00 | 72 | 1020.7 |
| 20260502192021 | 13 | 250 | 0.0 | 0.0 | 0.00 | 0.00 | 0.00 | 72 | 1020.7 |
| 20260502191542 | 13 | 250 | 0.0 | 0.0 | 0.00 | 0.00 | 0.00 | 72 | 1020.7 |
| 20260502191021 | 13 | 250 | 0.0 | 3.2 | 0.00 | 0.00 | 0.00 | 71 | 1020.6 |
| 20260502190530 | 13 | 250 | 0.0 | 3.2 | 0.00 | 0.00 | 0.00 | 71 | 1020.6 |
| 20260502190043 | 13 | 250 | 0.0 | 4.8 | 0.00 | 0.00 | 0.00 | 71 | 1020.5 |
| 20260502185523 | 13 | 250 | 1.6 | 4.8 | 0.00 | 0.00 | 0.00 | 70 | 1020.5 |
| 20260502185023 | 14 | 250 | 3.2 | 6.4 | 0.00 | 0.00 | 0.00 | 70 | 1020.5 |
| 20260502184528 | 14 | 250 | 3.2 | 6.4 | 0.00 | 0.00 | 0.00 | 68 | 1020.4 |
| 20260502184025 | 14 | 250 | 4.8 | 6.4 | 0.00 | 0.00 | 0.00 | 68 | 1020.4 |
| 20260502183528 | 14 | 250 | 3.2 | 4.8 | 0.00 | 0.00 | 0.00 | 69 | 1020.3 |
| 20260502183020 | 15 | 250 | 1.6 | 4.8 | 0.00 | 0.00 | 0.00 | 68 | 1020.3 |
| 20260502182523 | 15 | 250 | 3.2 | 6.4 | 0.00 | 0.00 | 0.00 | 68 | 1020.2 |
| 20260502182020 | 15 | 250 | 4.8 | 6.4 | 0.00 | 0.00 | 0.00 | 67 | 1020.1 |
| 20260502181524 | 15 | 251 | 3.2 | 4.8 | 0.00 | 0.00 | 0.00 | 66 | 1020.1 |
| 20260502181026 | 15 | 252 | 1.6 | 4.8 | 0.00 | 0.00 | 0.00 | 67 | 1020.0 |
| 20260502180530 | 16 | 252 | 3.2 | 4.8 | 0.00 | 0.00 | 0.00 | 65 | 1019.9 |
| 20260502164029 | 20 | 236 | 1.6 | 8.0 | 0.00 | 0.00 | 0.00 | 47 | 1019.7 |
| 20260502163513 | 21 | 220 | 4.8 | 11.3 | 0.00 | 0.00 | 0.00 | 46 | 1019.7 |
| 20260502163026 | 21 | 220 | 3.2 | 11.3 | 0.00 | 0.00 | 0.00 | 45 | 1019.7 |
| 20260502162531 | 21 | 224 | 4.8 | 8.0 | 0.00 | 0.00 | 0.00 | 46 | 1019.7 |
| 20260502162050 | 21 | 226 | 4.8 | 8.0 | 0.00 | 0.00 | 0.00 | 48 | 1019.7 |
| 20260502161516 | 21 | 221 | 3.2 | 9.7 | 0.00 | 0.00 | 0.00 | 45 | 1019.6 |
| 20260502161036 | 22 | 230 | 3.2 | 9.7 | 0.00 | 0.00 | 0.00 | 45 | 1019.6 |
| 20260502160520 | 22 | 234 | 3.2 | 11.3 | 0.00 | 0.00 | 0.00 | 43 | 1019.7 |
| 20260502152011 | 23 | 219 | 6.4 | 11.3 | 0.00 | 0.00 | 0.00 | 38 | 1020.0 |
| 20260502151513 | 24 | 244 | 4.8 | 11.3 | 0.00 | 0.00 | 0.00 | 39 | 1020.0 |
| 20260502151033 | 24 | 216 | 6.4 | 16.1 | 0.00 | 0.00 | 0.00 | 37 | 1020.1 |
| 20260502150516 | 25 | 232 | 9.7 | 16.1 | 0.00 | 0.00 | 0.00 | 36 | 1020.1 |
| 20260502130513 | 25 | 186 | 6.4 | 20.9 | 0.00 | 0.00 | 0.00 | 33 | 1021.2 |
| 20260502123513 | 25 | 155 | 4.8 | 16.1 | 0.00 | 0.00 | 0.00 | 33 | 1021.5 |
| 20260502123046 | 25 | 202 | 6.4 | 14.5 | 0.00 | 0.00 | 0.00 | 33 | 1021.6 |
| 20260502122528 | 25 | 204 | 8.0 | 16.1 | 0.00 | 0.00 | 0.00 | 32 | 1021.7 |
| 20260502122028 | 25 | 182 | 6.4 | 14.5 | 0.00 | 0.00 | 0.00 | 33 | 1021.7 |
| 20260502121530 | 24 | 229 | 6.4 | 16.1 | 0.00 | 0.00 | 0.00 | 33 | 1021.8 |
| 20260502121029 | 25 | 179 | 8.0 | 16.1 | 0.00 | 0.00 | 0.00 | 33 | 1021.9 |
| 20260502120514 | 24 | 231 | 6.4 | 12.9 | 0.00 | 0.00 | 0.00 | 34 | 1021.9 |
| 20260502115530 | 24 | 194 | 6.4 | 16.1 | 0.00 | 0.00 | 0.00 | 33 | 1022.0 |
| 20260502115029 | 24 | 215 | 9.7 | 16.1 | 0.00 | 0.00 | 0.00 | 33 | 1022.0 |
| 20260502114513 | 24 | 167 | 4.8 | 12.9 | 0.00 | 0.00 | 0.00 | 32 | 1022.1 |
| 20260502114014 | 24 | 175 | 4.8 | 14.5 | 0.00 | 0.00 | 0.00 | 33 | 1022.2 |
| 20260502113515 | 24 | 227 | 4.8 | 14.5 | 0.00 | 0.00 | 0.00 | 33 | 1022.2 |
| 20260502113024 | 24 | 196 | 8.0 | 16.1 | 0.00 | 0.00 | 0.00 | 35 | 1022.3 |
| 20260502112528 | 24 | 225 | 6.4 | 16.1 | 0.00 | 0.00 | 0.00 | 33 | 1022.4 |
| 20260502112026 | 24 | 202 | 6.4 | 16.1 | 0.00 | 0.00 | 0.00 | 33 | 1022.4 |
| 20260502111527 | 24 | 184 | 6.4 | 16.1 | 0.00 | 0.00 | 0.00 | 34 | 1022.5 |
| 20260502111027 | 23 | 162 | 6.4 | 16.1 | 0.00 | 0.00 | 0.00 | 34 | 1022.6 |
| 20260502110551 | 23 | 207 | 6.4 | 14.5 | 0.00 | 0.00 | 0.00 | 34 | 1022.6 |
| 20260502110023 | 23 | 208 | 6.4 | 16.1 | 0.00 | 0.00 | 0.00 | 34 | 1022.7 |
| 20260502105548 | 23 | 219 | 9.7 | 16.1 | 0.00 | 0.00 | 0.00 | 34 | 1022.7 |
| 20260502105028 | 23 | 175 | 4.8 | 17.7 | 0.00 | 0.00 | 0.00 | 34 | 1022.8 |
| 20260502104531 | 23 | 182 | 8.0 | 17.7 | 0.00 | 0.00 | 0.00 | 35 | 1022.7 |
| 20260502104030 | 23 | 159 | 4.8 | 16.1 | 0.00 | 0.00 | 0.00 | 36 | 1022.8 |
| 20260502103536 | 23 | 213 | 6.4 | 16.1 | 0.00 | 0.00 | 0.00 | 37 | 1023.0 |
| 20260502103049 | 23 | 221 | 9.7 | 16.1 | 0.00 | 0.00 | 0.00 | 36 | 1023.1 |
| 20260502102514 | 23 | 182 | 6.4 | 12.9 | 0.00 | 0.00 | 0.00 | 35 | 1023.0 |
| 20260502102014 | 23 | 198 | 6.4 | 17.7 | 0.00 | 0.00 | 0.00 | 38 | 1023.1 |
| 20260502101518 | 23 | 209 | 9.7 | 19.3 | 0.00 | 0.00 | 0.00 | 37 | 1023.1 |
| 20260502101019 | 23 | 198 | 4.8 | 12.9 | 0.00 | 0.00 | 0.00 | 38 | 1023.2 |
| 20260502100523 | 23 | 186 | 3.2 | 12.9 | 0.00 | 0.00 | 0.00 | 37 | 1023.2 |
| 20260502091521 | 21 | 59 | 1.6 | 6.4 | 0.00 | 0.00 | 0.00 | 47 | 1023.9 |
| 20260502091020 | 21 | 58 | 4.8 | 6.4 | 0.00 | 0.00 | 0.00 | 47 | 1023.9 |
| 20260502090528 | 20 | 53 | 3.2 | 8.0 | 0.00 | 0.00 | 0.00 | 47 | 1024.0 |
| 20260502071513 | 15 | 48 | 4.8 | 8.0 | 0.00 | 0.00 | 0.00 | 61 | 1025.4 |
| 20260502071033 | 14 | 55 | 4.8 | 9.7 | 0.00 | 0.00 | 0.00 | 62 | 1025.5 |
| 20260502070515 | 14 | 55 | 6.4 | 9.7 | 0.00 | 0.00 | 0.00 | 62 | 1025.5 |
| 20260502070027 | 14 | 60 | 4.8 | 9.7 | 0.00 | 0.00 | 0.00 | 63 | 1025.6 |
| 20260502065530 | 13 | 74 | 4.8 | 11.3 | 0.00 | 0.00 | 0.00 | 65 | 1025.6 |
| 20260502065050 | 13 | 92 | 3.2 | 9.7 | 0.00 | 0.00 | 0.00 | 66 | 1025.6 |
| 20260502064531 | 13 | 97 | 3.2 | 9.7 | 0.00 | 0.00 | 0.00 | 66 | 1025.7 |
| 20260502064031 | 13 | 101 | 3.2 | 9.7 | 0.00 | 0.00 | 0.00 | 68 | 1025.8 |
| 20260502063532 | 12 | 113 | 3.2 | 11.3 | 0.00 | 0.00 | 0.00 | 68 | 1025.8 |
| 20260502063044 | 12 | 123 | 6.4 | 11.3 | 0.00 | 0.00 | 0.00 | 68 | 1025.9 |
| 20260502062527 | 12 | 175 | 4.8 | 6.4 | 0.00 | 0.00 | 0.00 | 69 | 1025.9 |
| 20260502062025 | 12 | 200 | 4.8 | 8.0 | 0.00 | 0.00 | 0.00 | 70 | 1026.0 |
| 20260502061548 | 12 | 212 | 3.2 | 8.0 | 0.00 | 0.00 | 0.00 | 71 | 1026.0 |
| 20260502061026 | 11 | 215 | 3.2 | 6.4 | 0.00 | 0.00 | 0.00 | 72 | 1026.0 |
| 20260502060529 | 11 | 217 | 3.2 | 8.0 | 0.00 | 0.00 | 0.00 | 72 | 1026.0 |
| 20260502060019 | 11 | 220 | 4.8 | 9.7 | 0.00 | 0.00 | 0.00 | 73 | 1026.1 |
| 20260502055523 | 11 | 223 | 4.8 | 9.7 | 0.00 | 0.00 | 0.00 | 73 | 1026.2 |
| 20260502055043 | 10 | 224 | 3.2 | 8.0 | 0.00 | 0.00 | 0.00 | 74 | 1026.2 |
| 20260502054525 | 10 | 225 | 4.8 | 8.0 | 0.00 | 0.00 | 0.00 | 75 | 1026.3 |
| 20260502054024 | 10 | 225 | 3.2 | 6.4 | 0.00 | 0.00 | 0.00 | 75 | 1026.3 |
| 20260502053526 | 10 | 225 | 4.8 | 8.0 | 0.00 | 0.00 | 0.00 | 76 | 1026.4 |
| 20260502053017 | 9 | 225 | 3.2 | 8.0 | 0.00 | 0.00 | 0.00 | 78 | 1026.4 |
| 20260502052524 | 9 | 225 | 4.8 | 6.4 | 0.00 | 0.00 | 0.00 | 80 | 1026.4 |
| 20260502052019 | 8 | 225 | 3.2 | 6.4 | 0.00 | 0.00 | 0.00 | 82 | 1026.4 |
| 20260502051522 | 8 | 226 | 1.6 | 4.8 | 0.00 | 0.00 | 0.00 | 84 | 1026.4 |
| 20260502051022 | 7 | 226 | 0.0 | 3.2 | 0.00 | 0.00 | 0.00 | 84 | 1026.5 |
| 20260502050522 | 7 | 226 | 1.6 | 4.8 | 0.00 | 0.00 | 0.00 | 85 | 1026.5 |
| 20260502050016 | 7 | 226 | 3.2 | 4.8 | 0.00 | 0.00 | 0.00 | 87 | 1026.5 |
| 20260502045519 | 7 | 226 | 1.6 | 4.8 | 0.00 | 0.00 | 0.00 | 89 | 1026.5 |
| 20260502045019 | 6 | 226 | 1.6 | 3.2 | 0.00 | 0.00 | 0.00 | 89 | 1026.5 |
| 20260502044522 | 6 | 226 | 0.0 | 0.0 | 0.00 | 0.00 | 0.00 | 88 | 1026.4 |
| 20260502044023 | 6 | 226 | 0.0 | 0.0 | 0.00 | 0.00 | 0.00 | 87 | 1026.5 |
| 20260502043546 | 6 | 226 | 0.0 | 0.0 | 0.00 | 0.00 | 0.00 | 87 | 1026.4 |
| 20260502043017 | 6 | 226 | 0.0 | 0.0 | 0.00 | 0.00 | 0.00 | 87 | 1026.4 |
| 20260502042519 | 6 | 226 | 0.0 | 1.6 | 0.00 | 0.00 | 0.00 | 87 | 1026.4 |
| 20260502042021 | 6 | 226 | 0.0 | 1.6 | 0.00 | 0.00 | 0.00 | 87 | 1026.4 |
| 20260502041549 | 6 | 226 | 0.0 | 0.0 | 0.00 | 0.00 | 0.00 | 86 | 1026.4 |
| 20260502041027 | 6 | 226 | 0.0 | 0.0 | 0.00 | 0.00 | 0.00 | 86 | 1026.5 |
| 20260502040516 | 6 | 226 | 0.0 | 0.0 | 0.00 | 0.00 | 0.00 | 86 | 1026.4 |
| 20260502040026 | 6 | 226 | 0.0 | 0.0 | 0.00 | 0.00 | 0.00 | 86 | 1026.4 |
| 20260502035530 | 6 | 226 | 0.0 | 0.0 | 0.00 | 0.00 | 0.00 | 86 | 1026.5 |
| 20260502035051 | 6 | 226 | 0.0 | 0.0 | 0.00 | 0.00 | 0.00 | 86 | 1026.4 |
| 20260502034512 | 6 | 226 | 0.0 | 0.0 | 0.00 | 0.00 | 0.00 | 86 | 1026.4 |
| 20260502034013 | 6 | 226 | 0.0 | 0.0 | 0.00 | 0.00 | 0.00 | 86 | 1026.4 |
| 20260502033537 | 6 | 226 | 0.0 | 0.0 | 0.00 | 0.00 | 0.00 | 86 | 1026.4 |
| 20260502033029 | 6 | 226 | 0.0 | 0.0 | 0.00 | 0.00 | 0.00 | 86 | 1026.4 |
| 20260502032531 | 6 | 226 | 0.0 | 1.6 | 0.00 | 0.00 | 0.00 | 85 | 1026.4 |
| 20260502032031 | 6 | 226 | 0.0 | 1.6 | 0.00 | 0.00 | 0.00 | 85 | 1026.4 |
| 20260502031513 | 6 | 226 | 0.0 | 1.6 | 0.00 | 0.00 | 0.00 | 85 | 1026.2 |
| 20260502031034 | 6 | 226 | 0.0 | 1.6 | 0.00 | 0.00 | 0.00 | 85 | 1026.3 |
| 20260502030516 | 6 | 226 | 0.0 | 0.0 | 0.00 | 0.00 | 0.00 | 85 | 1026.3 |
| 20260502030028 | 6 | 226 | 0.0 | 1.6 | 0.00 | 0.00 | 0.00 | 85 | 1026.4 |
| 20260502025531 | 6 | 226 | 0.0 | 1.6 | 0.00 | 0.00 | 0.00 | 85 | 1026.4 |
| 20260502025051 | 6 | 226 | 0.0 | 1.6 | 0.00 | 0.00 | 0.00 | 85 | 1026.5 |
| 20260502024514 | 6 | 226 | 0.0 | 1.6 | 0.00 | 0.00 | 0.00 | 85 | 1026.5 |
| 20260502024015 | 6 | 226 | 0.0 | 3.2 | 0.00 | 0.00 | 0.00 | 85 | 1026.5 |
| 20260502023523 | 6 | 226 | 0.0 | 3.2 | 0.00 | 0.00 | 0.00 | 85 | 1026.4 |
| 20260502023015 | 6 | 226 | 1.6 | 3.2 | 0.00 | 0.00 | 0.00 | 85 | 1026.5 |
| 20260502022539 | 6 | 226 | 0.0 | 4.8 | 0.00 | 0.00 | 0.00 | 85 | 1026.5 |
| 20260502022039 | 6 | 226 | 1.6 | 4.8 | 0.00 | 0.00 | 0.00 | 85 | 1026.5 |
| 20260502021520 | 6 | 226 | 0.0 | 4.8 | 0.00 | 0.00 | 0.00 | 85 | 1026.5 |
| 20260502021020 | 6 | 226 | 0.0 | 1.6 | 0.00 | 0.00 | 0.00 | 85 | 1026.5 |
| 20260502020523 | 6 | 226 | 0.0 | 1.6 | 0.00 | 0.00 | 0.00 | 85 | 1026.5 |
| 20260502020014 | 6 | 226 | 0.0 | 0.0 | 0.00 | 0.00 | 0.00 | 84 | 1026.5 |
| 20260502015540 | 6 | 226 | 0.0 | 0.0 | 0.00 | 0.00 | 0.00 | 84 | 1026.5 |
| 20260502015018 | 6 | 226 | 0.0 | 0.0 | 0.00 | 0.00 | 0.00 | 84 | 1026.5 |
| 20260502014522 | 6 | 226 | 0.0 | 0.0 | 0.00 | 0.00 | 0.00 | 84 | 1026.5 |
| 20260502014025 | 6 | 226 | 0.0 | 0.0 | 0.00 | 0.00 | 0.00 | 84 | 1026.5 |
| 20260502013548 | 6 | 226 | 0.0 | 0.0 | 0.00 | 0.00 | 0.00 | 83 | 1026.6 |
| 20260502013016 | 6 | 226 | 0.0 | 0.0 | 0.00 | 0.00 | 0.00 | 83 | 1026.6 |
| 20260502012519 | 6 | 226 | 0.0 | 3.2 | 0.00 | 0.00 | 0.00 | 83 | 1026.6 |
| 20260502012021 | 6 | 226 | 0.0 | 3.2 | 0.00 | 0.00 | 0.00 | 83 | 1026.6 |
| 20260502011522 | 6 | 226 | 0.0 | 0.0 | 0.00 | 0.00 | 0.00 | 82 | 1026.7 |
| 20260502011023 | 6 | 226 | 0.0 | 0.0 | 0.00 | 0.00 | 0.00 | 82 | 1026.7 |
| 20260502010529 | 7 | 226 | 0.0 | 0.0 | 0.00 | 0.00 | 0.00 | 82 | 1026.7 |
| 20260502010019 | 7 | 226 | 0.0 | 0.0 | 0.00 | 0.00 | 0.00 | 82 | 1026.7 |
| 20260502005521 | 7 | 226 | 0.0 | 1.6 | 0.00 | 0.00 | 0.00 | 82 | 1026.7 |
| 20260502005022 | 7 | 226 | 0.0 | 1.6 | 0.00 | 0.00 | 0.00 | 81 | 1026.7 |
| 20260502004526 | 7 | 226 | 0.0 | 6.4 | 0.00 | 0.00 | 0.00 | 81 | 1026.7 |
| 20260502004044 | 7 | 226 | 1.6 | 6.4 | 0.00 | 0.00 | 0.00 | 81 | 1026.7 |
| 20260502003526 | 7 | 226 | 3.2 | 4.8 | 0.00 | 0.00 | 0.00 | 81 | 1026.7 |
| 20260502003017 | 7 | 226 | 0.0 | 3.2 | 0.00 | 0.00 | 0.00 | 81 | 1026.7 |
| 20260502002518 | 7 | 226 | 1.6 | 6.4 | 0.00 | 0.00 | 0.00 | 80 | 1026.8 |
| 20260502002017 | 7 | 226 | 1.6 | 6.4 | 0.00 | 0.00 | 0.00 | 80 | 1026.8 |
| 20260502001518 | 7 | 226 | 1.6 | 6.4 | 0.00 | 0.00 | 0.00 | 80 | 1026.8 |
| 20260502001019 | 7 | 226 | 3.2 | 6.4 | 0.00 | 0.00 | 0.00 | 80 | 1026.8 |
| 20260502000523 | 7 | 225 | 3.2 | 6.4 | 0.00 | 0.00 | 0.00 | 80 | 1026.8 |
| 20260502000036 | 7 | 225 | 1.6 | 4.8 | 0.00 | 0.00 | 0.00 | 80 | 1026.8 |
| 20260501235540 | 7 | 225 | 1.6 | 4.8 | 0.00 | 0.00 | 0.00 | 80 | 1026.8 |
| 20260501235018 | 7 | 225 | 1.6 | 4.8 | 0.00 | 0.00 | 0.00 | 79 | 1026.9 |
| 20260501234523 | 7 | 225 | 0.0 | 6.4 | 0.00 | 0.00 | 0.00 | 79 | 1026.9 |
| 20260501234023 | 7 | 225 | 3.2 | 6.4 | 0.00 | 0.00 | 0.00 | 79 | 1026.8 |
| 20260501233546 | 7 | 225 | 0.0 | 3.2 | 0.00 | 0.00 | 0.00 | 78 | 1026.8 |
| 20260501233015 | 7 | 225 | 0.0 | 4.8 | 0.00 | 0.00 | 0.00 | 78 | 1026.8 |
| 20260501232520 | 7 | 225 | 1.6 | 4.8 | 0.00 | 0.00 | 0.00 | 79 | 1026.8 |